Temp
46 47 47 46 46 46 45 44 44 44 43 43 42 41 41 41 42 40 40 41 41 40 40 40 40 39 38 38 38 38 38 38 38 39 38 38 39 37 37 37 38 39
45 45 46 45 45 44 44 44 44 44 43 43 43 43 43 42 41 40 40 40 40 40 40 40 39 39 38 37 37 37 38 38 37 37 37 36 38 37 37 37 37 37
43 44 44 43 44 43 42 43 44 44 44 44 43 43 42 41 40 40 40 40 39 39 39 39 38 38 38 38 37 37 37 36 37 36 37 36 37 37 38 36 37 35
42 42 42 42 43 42 42 41 42 43 43 42 42 42 41 40 40 39 39 38 39 39 39 39 38 38 38 38 37 37 38 37 38 36 36 37 36 37 36 36 35 35
41 41 41 41 41 41 41 40 40 41 41 41 41 41 41 40 39 39 39 39 39 39 39 38 38 38 38 37 37 37 37 37 37 35 36 35 35 35 35 35 34 34
40 40 41 41 41 41 41 41 41 41 41 41 41 41 40 40 40 39 39 38 39 39 38 38 37 38 37 37 36 37 37 36 35 35 35 35 34 35 34 34 34 33
40 40 40 41 40 40 40 41 41 41 41 42 41 40 40 39 39 39 39 39 38 38 38 37 37 37 37 37 36 37 37 36 35 34 34 35 34 33 33 33 33 33
39 40 40 40 40 40 40 41 41 41 41 41 40 41 40 39 39 39 39 38 38 38 38 38 37 37 36 36 36 36 36 36 34 33 34 34 33 31 32 32 33 33
38 39 39 39 39 40 40 41 41 42 41 41 41 41 40 40 39 39 38 38 38 38 38 37 37 37 37 36 36 36 36 35 34 33 34 33 31 32 31 32 32 32
40 39 38 38 39 40 40 41 41 42 41 41 41 41 40 40 40 39 39 38 37 38 38 37 37 37 36 36 36 36 36 35 34 33 34 34 32 32 31 31 31 31
41 41 40 39 39 40 40 41 41 41 41 41 41 40 40 39 38 39 38 38 37 37 37 37 37 37 37 36 36 37 37 36 35 34 34 34 34 33 31 31 31 31
40 41 41 40 40 40 40 40 41 41 41 41 40 40 40 39 39 38 38 37 38 38 38 38 38 37 37 37 36 37 37 37 36 35 34 35 34 34 32 32 32 32
39 39 40 40 40 41 41 41 40 40 40 40 40 39 40 39 39 38 38 38 38 38 38 38 38 37 37 37 37 37 37 36 36 35 35 35 35 35 34 33 33 33
38 38 39 39 39 40 40 40 40 40 40 40 39 39 39 39 39 38 38 38 38 38 38 38 38 37 37 37 37 37 36 36 36 35 35 35 35 35 34 33 33 33
38 38 38 38 38 38 38 39 39 39 39 39 39 39 39 39 39 39 38 38 38 38 37 37 37 37 37 37 36 36 36 36 36 35 35 34 34 33 33 33 33 33
37 37 36 36 36 36 37 37 38 38 38 38 38 38 38 38 38 38 38 38 37 37 37 37 37 37 37 37 37 36 36 35 34 34 34 35 34 33 32 32 32 32
36 35 35 35 35 36 35 35 36 36 36 36 36 36 36 37 37 36 37 37 37 37 36 36 37 37 37 38 38 38 36 35 33 33 33 34 34 33 31 31 31 32
34 34 33 33 33 33 33 33 34 34 34 34 34 35 35 35 35 36 36 36 37 37 36 37 37 37 38 38 38 38 37 34 33 33 32 33 34 33 33 31 30 30
33 32 31 31 32 32 32 32 32 32 33 33 33 34 34 34 35 35 35 36 36 36 36 36 36 38 38 38 38 38 38 36 33 32 32 31 33 33 32 31 30 29
33 31 31 31 31 31 31 31 31 31 32 32 33 33 33 33 33 34 35 35 36 36 36 36 36 37 38 38 38 38 38 37 33 32 31 31 32 32 32 31 29 28
31 30 30 30 30 30 30 30 30 30 31 31 32 33 32 32 33 33 33 33 34 34 34 35 36 37 38 38 38 38 38 37 33 32 32 31 32 32 32 31 29 28
29 28 28 29 29 29 29 29 30 30 30 31 31 31 31 32 32 32 32 32 33 33 33 33 35 37 37 37 38 38 39 36 34 32 31 30 30 32 32 31 29 28
27 27 27 28 29 29 28 29 29 30 30 30 29 30 30 30 30 31 32 32 32 32 31 32 33 35 37 37 38 38 37 35 34 32 30 29 29 30 29 29 28 27
25 25 26 28 28 28 27 28 29 29 29 29 28 28 29 29 30 30 30 31 31 31 31 31 32 34 36 37 37 38 37 34 33 31 29 28 28 28 28 28 27 28
23 24 26 27 27 27 27 27 27 28 29 28 27 27 27 29 29 29 29 30 30 30 32 31 31 32 35 36 37 37 37 34 33 31 28 27 27 24 25 25 26 27
22 22 24 26 26 26 26 26 27 27 27 28 28 28 27 27 27 27 27 29 30 29 29 30 30 30 32 35 36 37 37 35 33 30 27 26 25 23 22 23 24 25
MSLP
1011.65 1011.49 1011.29 1011.13 1010.89 1010.77 1010.89 1011.17 1011.45 1011.69 1011.93 1012.09 1012.01 1011.97 1012.05 1012.25 1012.93 1013.33 1013.57 1014.13 1014.49 1014.85 1015.13 1015.37 1015.61 1015.93 1016.21 1016.69 1017.09 1017.49 1017.81 1018.05 1018.41 1018.69 1019.01 1019.29 1019.41 1019.65 1019.89 1020.01 1020.17 1020.17
1011.69 1011.77 1011.65 1011.53 1011.49 1011.45 1011.33 1011.25 1011.29 1011.45 1011.69 1011.93 1011.97 1012.13 1012.29 1012.61 1012.81 1013.13 1013.45 1013.77 1014.13 1014.45 1014.81 1015.29 1015.65 1015.89 1016.17 1016.49 1016.85 1017.13 1017.41 1017.69 1017.89 1018.25 1018.57 1018.81 1018.89 1019.25 1019.33 1019.53 1019.73 1020.13
1011.73 1011.65 1011.57 1011.41 1011.29 1011.25 1011.37 1011.49 1011.49 1011.45 1011.45 1011.61 1011.97 1012.21 1012.37 1012.57 1012.81 1013.05 1013.33 1013.49 1013.73 1014.09 1014.49 1014.81 1015.17 1015.53 1015.89 1016.21 1016.57 1016.77 1016.89 1017.09 1017.33 1017.77 1018.01 1018.13 1018.41 1018.69 1018.81 1019.25 1019.53 1019.81
1011.77 1011.73 1011.57 1011.33 1011.21 1011.09 1011.13 1011.33 1011.45 1011.57 1011.73 1011.89 1011.97 1012.05 1012.21 1012.41 1012.57 1012.81 1013.05 1013.33 1013.49 1013.77 1014.09 1014.49 1014.73 1015.05 1015.37 1015.73 1016.13 1016.33 1016.41 1016.57 1016.57 1017.09 1017.41 1017.77 1017.97 1018.09 1018.45 1018.89 1019.17 1019.61
1011.65 1011.77 1011.85 1011.61 1011.29 1011.05 1010.93 1010.89 1010.93 1011.09 1011.33 1011.49 1011.85 1012.13 1012.33 1012.45 1012.61 1012.81 1012.93 1013.01 1013.17 1013.41 1013.73 1014.01 1014.41 1014.65 1014.97 1015.33 1015.65 1015.93 1016.17 1016.37 1016.65 1016.93 1017.01 1017.25 1017.65 1017.89 1018.13 1018.45 1018.73 1019.05
1011.41 1011.53 1011.57 1011.53 1011.37 1011.05 1010.73 1010.57 1010.53 1010.61 1010.73 1011.01 1011.17 1011.61 1011.93 1012.29 1012.41 1012.45 1012.57 1012.77 1012.89 1013.05 1013.29 1013.65 1013.97 1014.25 1014.61 1014.89 1015.33 1015.37 1015.61 1015.93 1016.21 1016.61 1016.73 1016.89 1017.37 1017.77 1017.97 1018.13 1018.29 1018.57
1011.33 1011.25 1011.09 1011.05 1010.97 1010.85 1010.69 1010.49 1010.45 1010.45 1010.49 1010.53 1010.89 1011.01 1011.37 1011.77 1012.09 1012.37 1012.53 1012.57 1012.77 1012.81 1012.89 1013.09 1013.37 1013.69 1014.09 1014.49 1014.77 1014.93 1015.13 1015.37 1015.85 1016.17 1016.25 1016.53 1017.01 1017.45 1017.73 1017.81 1017.81 1018.01
1011.57 1011.37 1011.13 1010.89 1010.65 1010.49 1010.37 1010.33 1010.29 1010.29 1010.37 1010.61 1010.53 1010.61 1010.93 1011.05 1011.37 1011.73 1012.21 1012.57 1012.57 1012.45 1012.53 1012.77 1012.97 1013.17 1013.49 1013.85 1014.13 1014.41 1014.65 1015.01 1015.33 1015.61 1015.73 1015.97 1016.45 1016.77 1017.05 1017.25 1017.45 1017.73
1011.69 1011.53 1011.25 1011.01 1010.65 1010.29 1009.97 1009.81 1009.93 1010.01 1010.21 1010.33 1010.41 1010.65 1010.81 1010.77 1010.85 1011.13 1011.37 1011.73 1012.09 1012.37 1012.49 1012.45 1012.45 1012.77 1013.09 1013.37 1013.57 1013.73 1013.93 1014.25 1014.53 1014.85 1014.89 1015.21 1015.73 1015.85 1016.21 1016.65 1017.17 1017.29
1011.45 1011.33 1011.25 1010.97 1010.65 1010.17 1009.81 1009.61 1009.45 1009.45 1009.61 1009.81 1010.01 1010.37 1010.61 1010.85 1010.97 1010.89 1011.01 1011.13 1011.25 1011.49 1011.89 1012.33 1012.57 1012.33 1012.41 1012.73 1012.97 1013.21 1013.49 1013.69 1013.93 1014.21 1014.21 1014.33 1014.57 1015.01 1015.57 1015.93 1016.05 1016.65
1011.21 1011.01 1010.85 1010.69 1010.45 1010.09 1009.77 1009.49 1009.29 1009.17 1009.25 1009.37 1009.61 1009.77 1010.05 1010.45 1010.61 1010.77 1010.81 1010.81 1010.77 1010.77 1011.05 1011.37 1011.61 1012.05 1012.17 1011.97 1012.17 1012.65 1012.97 1013.21 1013.53 1013.73 1013.77 1013.73 1013.93 1014.13 1014.49 1014.81 1015.17 1015.21
1011.37 1011.09 1010.81 1010.49 1010.13 1009.81 1009.57 1009.33 1009.09 1008.97 1008.89 1008.85 1009.09 1009.25 1009.53 1009.69 1009.85 1010.13 1010.25 1010.25 1010.21 1010.25 1010.25 1010.45 1010.89 1011.33 1011.57 1011.81 1011.77 1011.57 1011.97 1012.61 1013.01 1013.33 1013.33 1013.29 1013.45 1013.61 1013.85 1013.97 1014.01 1014.37
1011.81 1011.49 1011.13 1010.69 1010.25 1009.81 1009.45 1009.21 1008.97 1008.81 1008.65 1008.57 1008.65 1008.69 1008.81 1009.09 1009.45 1009.65 1009.69 1009.81 1009.85 1009.97 1009.93 1010.01 1010.33 1010.61 1010.85 1011.05 1011.37 1011.85 1011.81 1011.69 1012.01 1012.57 1012.81 1012.89 1012.89 1012.93 1013.17 1013.41 1013.53 1013.73
1012.29 1011.97 1011.49 1011.01 1010.53 1010.01 1009.53 1009.21 1008.93 1008.65 1008.45 1008.29 1008.29 1008.29 1008.41 1008.57 1008.77 1008.97 1009.09 1009.33 1009.21 1009.29 1009.37 1009.69 1009.85 1009.93 1010.05 1010.21 1010.53 1010.85 1011.37 1011.81 1011.73 1011.73 1011.97 1012.09 1012.17 1012.45 1012.65 1012.93 1013.09 1013.29
1012.53 1012.21 1011.85 1011.33 1010.77 1010.21 1009.65 1009.21 1008.85 1008.57 1008.29 1008.05 1007.97 1007.97 1008.05 1008.09 1008.21 1008.45 1008.65 1008.73 1008.77 1008.89 1009.01 1009.25 1009.41 1009.33 1009.29 1009.41 1009.73 1010.17 1010.49 1010.81 1011.33 1011.69 1011.69 1011.57 1011.61 1011.89 1012.21 1012.57 1012.89 1013.09
1012.57 1012.29 1011.97 1011.61 1011.05 1010.57 1010.13 1009.65 1009.17 1008.65 1008.21 1007.89 1007.69 1007.57 1007.57 1007.69 1007.89 1008.01 1008.01 1007.97 1008.13 1008.45 1008.69 1008.81 1008.65 1008.53 1008.65 1009.01 1009.25 1009.37 1009.69 1009.97 1010.33 1010.97 1011.53 1011.65 1011.57 1011.53 1011.69 1011.97 1012.25 1012.61
1012.57 1012.25 1011.93 1011.61 1011.21 1010.85 1010.45 1010.05 1009.57 1008.97 1008.41 1007.93 1007.61 1007.41 1007.29 1007.37 1007.49 1007.41 1007.41 1007.57 1007.77 1007.89 1008.01 1008.09 1007.93 1007.85 1008.13 1008.53 1008.85 1009.09 1009.33 1009.53 1009.69 1009.81 1010.41 1011.13 1011.49 1011.45 1011.13 1011.37 1011.81 1012.29
1012.41 1012.25 1012.05 1011.69 1011.29 1010.89 1010.57 1010.21 1009.77 1009.21 1008.57 1007.97 1007.57 1007.33 1007.17 1007.13 1007.05 1006.93 1007.09 1007.17 1007.25 1007.33 1007.37 1007.21 1007.17 1007.29 1007.69 1007.89 1008.09 1008.45 1008.81 1009.09 1009.37 1009.57 1009.65 1009.93 1010.45 1011.09 1011.45 1011.57 1011.65 1012.01
1012.45 1012.25 1012.01 1011.73 1011.49 1011.13 1010.69 1010.21 1009.65 1009.05 1008.41 1007.85 1007.45 1007.13 1007.05 1007.01 1006.89 1006.89 1006.73 1006.77 1006.85 1006.77 1006.65 1006.69 1006.77 1006.77 1007.05 1007.25 1007.53 1007.81 1008.21 1008.69 1009.05 1009.21 1009.45 1009.41 1009.53 1010.25 1010.93 1011.45 1011.81 1011.97
1012.57 1012.41 1012.05 1011.69 1011.33 1011.05 1010.65 1010.17 1009.65 1009.05 1008.49 1008.09 1007.69 1007.33 1007.09 1006.77 1006.65 1006.57 1006.45 1006.41 1006.37 1006.29 1006.17 1006.13 1006.09 1006.17 1006.49 1006.73 1006.97 1007.21 1007.49 1007.93 1008.37 1008.69 1008.85 1008.97 1009.05 1009.17 1009.85 1010.73 1011.25 1011.57
1012.73 1012.49 1012.13 1011.69 1011.29 1010.89 1010.45 1010.05 1009.61 1009.09 1008.57 1008.17 1007.77 1007.45 1007.13 1006.81 1006.49 1006.33 1006.13 1006.13 1006.09 1006.01 1005.93 1005.69 1005.53 1005.85 1006.17 1006.29 1006.45 1006.65 1006.85 1007.25 1007.85 1008.29 1008.49 1008.57 1008.65 1008.89 1009.09 1009.37 1010.13 1010.89
1012.69 1012.25 1011.81 1011.37 1010.93 1010.49 1010.17 1009.77 1009.41 1009.09 1008.65 1008.13 1007.85 1007.49 1007.17 1006.89 1006.53 1006.25 1005.93 1005.81 1005.77 1005.77 1005.69 1005.37 1005.29 1005.57 1005.77 1005.89 1006.05 1006.21 1006.49 1006.81 1007.17 1007.53 1007.77 1007.97 1008.17 1008.37 1008.69 1009.29 1009.77 1010.13
1012.77 1012.37 1011.65 1011.01 1010.57 1010.21 1009.89 1009.65 1009.33 1008.89 1008.57 1008.25 1007.89 1007.41 1007.09 1006.77 1006.41 1006.05 1005.69 1005.53 1005.49 1005.49 1005.45 1005.17 1005.13 1005.29 1005.37 1005.49 1005.61 1005.81 1006.13 1006.29 1006.53 1006.97 1007.33 1007.57 1007.61 1007.85 1008.25 1008.69 1009.17 1009.61
1012.89 1012.49 1011.73 1010.81 1010.37 1010.13 1009.81 1009.45 1009.17 1008.93 1008.53 1008.21 1007.97 1007.29 1006.85 1006.37 1006.09 1005.81 1005.53 1005.29 1005.09 1005.05 1005.01 1004.89 1004.73 1004.89 1005.01 1005.01 1005.17 1005.37 1005.53 1005.81 1006.05 1006.41 1006.73 1007.09 1007.33 1007.65 1008.01 1008.37 1008.73 1009.13
1012.89 1012.45 1011.69 1010.77 1010.25 1010.01 1009.81 1009.45 1008.97 1008.69 1008.21 1008.01 1007.77 1007.25 1006.65 1006.09 1005.81 1005.57 1005.21 1004.97 1004.77 1004.61 1004.61 1004.61 1004.45 1004.61 1004.81 1004.81 1004.89 1005.01 1005.21 1005.37 1005.61 1005.97 1006.29 1006.57 1006.97 1007.61 1008.05 1008.41 1008.73 1008.85
1012.93 1012.45 1011.61 1010.89 1010.33 1009.93 1009.73 1009.41 1008.89 1008.45 1008.05 1007.69 1007.21 1006.89 1006.41 1005.85 1005.61 1005.33 1005.01 1004.53 1004.37 1004.37 1004.29 1004.25 1004.25 1004.25 1004.49 1004.53 1004.53 1004.61 1004.65 1004.85 1005.13 1005.53 1005.61 1006.01 1006.85 1007.61 1008.09 1008.33 1008.37 1008.49
Wind_Speed
7 5 6 5 5 4 5 7 6 7 7 6 8 9 10 9 9 12 12 9 10 9 9 9 9 10 9 9 9 8 9 9 8 8 9 8 8 9 9 9 9 8
7 7 6 5 4 4 4 5 7 7 7 8 7 6 6 7 9 9 10 10 10 10 10 9 8 8 9 9 10 10 9 9 11 7 10 11 9 9 9 10 9 7
7 7 7 8 7 6 6 6 6 7 7 8 7 7 7 8 7 8 8 9 9 9 9 9 10 10 10 9 10 10 9 11 11 10 10 11 9 10 9 9 7 10
7 8 7 7 7 7 6 6 7 6 6 6 9 8 9 8 8 10 9 11 9 10 9 10 11 10 11 11 11 10 10 10 9 10 10 8 9 9 9 8 8 8
7 8 7 7 7 6 6 8 9 9 9 9 7 7 7 7 8 9 9 9 10 9 9 11 10 10 10 10 11 10 10 10 9 10 10 10 9 9 8 9 10 11
7 7 7 8 8 8 8 9 10 10 10 10 10 8 8 8 8 9 9 10 10 10 10 10 11 10 10 10 10 10 10 10 10 11 11 11 10 9 7 9 11 11
10 9 10 8 9 8 9 9 8 9 9 10 8 10 8 9 9 9 9 10 10 10 11 11 12 11 10 10 11 11 10 10 10 12 12 10 10 11 9 10 10 11
10 10 9 9 9 9 10 9 9 9 9 8 11 9 10 11 10 10 9 10 10 11 11 11 11 11 11 11 12 12 11 9 10 13 13 12 11 12 12 10 11 12
9 9 10 10 10 10 10 10 10 9 8 10 10 9 8 10 12 12 11 11 11 10 9 10 12 12 11 11 12 13 13 11 11 13 14 13 14 14 13 12 12 12
10 9 9 10 10 10 11 10 10 10 9 10 10 9 8 8 11 12 13 12 11 11 12 10 10 11 12 12 13 13 12 12 12 13 12 13 14 13 14 14 14 13
15 13 11 11 10 10 11 10 10 10 9 10 10 11 11 10 11 11 12 13 14 13 12 12 13 12 11 12 13 12 12 11 11 12 12 12 12 13 13 14 14 14
16 16 15 14 13 11 10 10 10 9 10 10 10 12 11 12 13 12 13 15 15 15 14 13 11 12 13 12 12 13 13 12 11 12 13 12 12 12 14 14 15 15
16 16 15 15 14 12 11 10 8 9 9 10 9 12 12 12 12 13 13 13 15 14 15 15 14 13 12 13 13 12 12 12 17 14 13 13 12 12 13 14 13 13
14 14 14 15 14 13 12 11 10 9 9 9 9 11 12 12 13 14 13 12 14 14 15 13 14 12 12 13 12 13 13 16 16 16 13 12 11 12 11 13 13 13
12 12 12 14 14 14 14 13 12 10 9 8 8 10 9 11 12 12 13 13 13 13 13 13 14 15 15 14 12 13 14 17 17 16 13 13 11 11 10 10 10 11
12 12 12 13 13 14 14 14 12 11 11 9 9 10 10 10 10 11 13 15 14 13 13 13 14 13 16 20 16 16 18 15 15 15 14 11 11 11 12 12 13 11
10 12 13 14 13 12 11 12 13 11 9 8 8 8 10 9 10 12 13 12 13 14 15 14 14 14 19 20 24 23 17 16 15 15 15 12 12 11 11 13 11 11
11 11 12 13 13 13 13 12 11 11 10 9 8 8 8 8 11 12 12 12 12 14 15 15 15 15 19 22 25 26 21 15 13 13 14 12 10 10 8 8 10 11
12 12 12 12 12 13 12 12 12 12 12 11 10 9 7 8 11 11 12 12 13 15 15 15 14 14 20 23 24 25 26 19 13 13 13 14 11 11 10 9 8 9
12 12 13 13 12 12 12 13 13 13 12 10 10 9 8 9 9 11 11 12 13 14 14 14 16 14 21 23 24 25 26 22 15 15 14 14 12 12 12 12 12 11
11 12 13 13 12 12 12 12 13 12 12 10 9 10 9 10 10 10 11 11 12 12 12 13 14 15 19 23 24 26 27 22 15 14 13 13 11 11 12 13 15 13
12 14 14 14 13 12 12 13 13 12 13 11 9 9 8 9 9 8 10 11 11 12 13 14 12 14 20 22 24 25 27 17 15 16 15 14 14 12 12 11 11 13
13 14 16 15 13 14 14 13 13 14 13 9 10 10 9 9 10 10 9 10 11 11 13 13 12 13 19 22 24 26 21 15 14 13 13 13 14 14 11 11 12 14
13 14 15 15 13 14 15 14 13 11 11 9 9 11 10 10 9 9 9 9 11 12 12 13 13 12 18 22 25 26 21 15 13 13 14 13 12 11 9 8 12 23
13 15 15 14 14 14 13 15 15 13 12 10 10 9 10 10 8 9 9 9 10 11 10 13 13 11 16 21 24 25 21 14 13 11 13 13 11 8 6 8 11 18
13 15 16 15 14 15 14 14 13 13 13 12 11 9 10 9 8 9 11 11 9 9 10 11 12 11 11 20 23 25 27 16 12 12 15 14 8 7 8 7 8 10
Wind_Direction
263 262 252 244 244 230 196 193 194 196 200 200 202 200 197 193 176 187 193 188 193 193 191 187 184 179 178 172 174 175 182 184 183 180 180 178 182 171 177 177 178 184
259 264 266 267 260 257 243 206 200 199 201 206 212 204 205 187 196 186 192 191 188 194 186 184 185 183 175 176 175 178 180 181 185 172 178 182 184 178 183 177 174 165
266 255 247 241 234 228 216 214 215 214 210 209 207 205 202 198 187 191 193 195 191 188 186 184 180 183 180 178 177 186 184 181 185 177 180 186 177 182 179 170 170 174
276 261 254 248 239 226 206 201 213 219 223 215 212 209 201 194 191 187 191 196 191 189 188 185 189 182 182 182 181 191 189 191 185 168 179 182 184 177 171 170 166 168
267 271 269 265 251 233 210 206 209 209 209 214 215 208 201 193 188 188 193 194 193 192 187 190 187 189 182 183 183 187 188 189 181 179 180 180 180 177 172 167 170 173
271 255 254 253 250 243 231 219 215 210 209 205 208 195 204 198 200 198 192 193 195 192 189 187 189 187 184 185 183 195 185 187 182 178 183 180 175 183 170 178 169 174
277 268 257 245 244 237 239 236 230 219 215 212 196 206 189 195 198 201 199 198 195 197 194 189 187 184 185 183 190 193 191 188 174 183 183 184 171 179 182 179 179 172
280 275 264 257 247 240 238 240 235 228 222 212 215 207 194 202 200 196 196 203 203 203 197 194 192 190 183 185 190 193 190 187 185 184 187 181 177 181 180 183 175 173
289 276 270 263 256 249 243 236 235 234 222 223 224 218 208 207 203 199 197 198 202 207 207 200 193 190 190 192 196 194 190 190 186 187 187 179 183 187 179 173 175 180
324 300 280 267 262 256 252 245 237 232 221 225 224 218 213 213 212 208 203 201 203 199 198 202 205 202 192 197 199 196 198 195 188 191 192 190 185 177 176 178 179 173
345 338 323 299 276 266 260 253 245 239 227 224 219 220 216 210 214 210 210 207 209 204 198 199 201 202 206 199 192 197 203 198 194 193 196 194 189 186 180 178 177 183
346 343 339 327 311 295 274 258 252 242 234 227 216 223 217 214 212 208 210 213 213 210 206 204 197 199 204 207 207 197 192 196 197 198 202 198 192 192 187 186 183 181
343 342 336 333 327 312 301 288 266 246 236 232 217 220 219 217 214 215 215 215 216 214 214 209 205 204 205 204 202 206 209 200 199 198 200 202 203 196 190 191 187 179
341 335 335 332 328 323 314 300 286 274 253 239 225 224 223 220 216 216 217 215 218 215 216 211 210 209 206 204 201 199 200 212 210 204 198 201 199 195 190 191 191 187
334 334 332 331 329 328 325 318 308 291 275 259 240 236 231 228 224 219 220 220 221 219 217 212 214 215 212 207 199 196 202 207 209 213 210 205 194 190 189 188 190 191
332 330 331 330 330 330 326 320 312 303 294 281 262 248 241 233 230 226 223 223 221 219 218 217 220 219 216 210 203 204 203 206 204 209 213 215 208 196 193 191 191 190
329 331 331 331 328 324 323 321 315 309 296 281 273 260 251 242 230 230 228 226 224 221 218 220 222 222 215 208 208 205 203 205 205 207 203 209 213 213 202 188 186 183
328 329 330 327 328 327 324 319 312 305 298 290 281 271 257 246 239 236 234 229 226 226 224 224 225 220 211 210 208 207 203 205 208 208 205 201 200 205 213 199 185 177
327 328 325 324 323 322 319 318 318 315 313 311 299 284 274 257 249 243 239 234 229 229 230 228 231 214 212 210 208 207 205 201 210 208 206 209 192 192 195 192 186 180
325 325 322 320 319 319 319 317 317 316 311 306 300 295 280 267 256 249 245 239 233 233 234 232 230 219 212 210 207 205 205 199 209 206 209 209 203 190 182 183 186 181
323 321 318 316 315 315 315 314 313 311 309 304 302 295 287 273 262 256 248 243 242 238 240 238 234 220 213 211 208 204 204 199 205 209 212 213 207 197 194 182 178 178
324 320 317 314 313 315 315 315 313 310 308 306 299 289 277 273 270 259 254 247 241 239 239 241 238 216 215 213 209 207 202 202 206 208 212 211 208 203 192 187 181 177
323 320 315 313 314 316 315 314 313 310 305 302 295 287 280 270 265 256 253 250 245 242 240 244 243 224 218 215 212 208 202 208 208 210 213 212 210 204 186 178 175 179
319 316 310 308 311 312 312 309 306 299 294 294 286 286 281 272 266 265 256 250 246 243 239 243 242 228 221 218 214 209 203 207 207 208 210 209 211 184 184 176 177 181
316 313 307 304 306 308 309 307 306 303 298 292 280 272 270 274 270 266 264 252 247 244 237 239 244 235 224 224 217 212 208 209 208 207 209 208 202 179 168 163 178 186
310 308 304 303 304 305 305 300 299 300 296 294 286 275 276 271 266 263 263 261 250 245 242 239 244 237 224 224 221 216 212 210 206 203 210 204 187 171 173 182 180 183